User: anonymous   Login
Location: Bow
(51.5261°N, 0.0167°W)
Time: 11:33:28
(UTC+00:00)
Language:

COSMOS 2406 - Orbit

View from above orbital plane
View from above orbital plane
View from above satellite
View from above satellite

Ground track
Ground track

The orbit data is extracted from the following two-line orbital elements,

1 28352U 04021A   20337.38957377  .00000002  00000-0  26997-4 0  9990
2 28352  71.0011   4.8604 0015171 346.4528  13.6183 14.11670528849212
Epoch (UTC): 02 December 2020 09:20:59
Eccentricity: 0.0015171
inclination: 71.0011°
perigee height: 842 km
apogee height: 864 km
right ascension of ascending node: 4.8604°
argument of perigee: 346.4528°
revolutions per day: 14.11670528
mean anomaly at epoch: 13.6183°
orbit number at epoch: 84921

The dashed part of the orbit path shows where the satellite is in the earth's shadow,  

DLR